Preview of NWS' New Version of Forecast
This preview is not operational and should not be used for support decisions.

Regional Weather Roundup (RWR)

Issued by National Weather Service (NWS)

                            
000
ASUS43 KLSX 210357
RWRMO 

WEATHER SUMMARY FOR MISSOURI
NATIONAL WEATHER SERVICE SPRINGFIELD MO
1100 PM CDT WED MAR 20 2019

NOTE: "FAIR" INDICATES FEW OR NO CLOUDS BELOW 12,000 FEET WITH NO
       SIGNIFICANT WEATHER AND/OR OBSTRUCTIONS TO VISIBILITY.
       CURRENT SKY AND/OR WEATHER CONDITIONS ARE NOT AVAILABLE FOR
       CHILLICOTHE AND FARMINGTON.

MOZ001>031-035>038-043-044-053-054-210500-
...NORTHERN AND WESTERN MISSOURI...
  
CITY           SKY/WX    TMP DP  RH WIND       PRES   REMARKS
KANSAS CTY INT CLEAR     48  37  65 N15       30.08R                  
LEE'S SUMMIT   CLEAR     49  34  56 NW10      30.07R                  
ST JOSEPH      MOCLDY    46  38  73 N8        30.10R                  
CHILLICOTHE      N/A     49  37  63 N12G25    30.06R                  
     
$$
MOZ066>068-077>081-088>096-101>105-210500-
...SOUTHWEST MISSOURI...
  
CITY           SKY/WX    TMP DP  RH WIND       PRES   REMARKS
SPRINGFIELD    CLEAR     40  33  76 SW9       30.08S                  
JOPLIN         CLEAR     48  33  56 SW9       30.10F                  
               
$$
MOZ032>034-039>042-045>050-055>058-069>072-210500-
...CENTRAL MISSOURI...  
  
CITY           SKY/WX    TMP DP  RH WIND       PRES   REMARKS
COLUMBIA       NOT AVBL                                               
JEFFERSON CITY CLOUDY    48  38  68 E3        30.04F                  
ROLLA          CLOUDY    45  36  70 SW8       30.05S                  
SEDALIA        CLEAR     44  33  65 SW8       30.03F                  
WARRENSBURG    CLEAR     46  32  57 SW6       30.05S                  
               
$$
MOZ051-052-059>065-210500-
...EAST CENTRAL MISSOURI...
  
CITY           SKY/WX    TMP DP  RH WIND       PRES   REMARKS
ST LOUIS INTL  MOCLDY    49  37  63 W10       30.02S                  
                   
$$
MOZ072>076-082>087-097>100-106>115-210500-
...SOUTH CENTRAL AND SOUTHEAST MISSOURI...
  
CITY           SKY/WX    TMP DP  RH WIND       PRES   REMARKS
CAPE GIRARDEAU FAIR      44  41  89 W7        30.06F                  
POPLAR BLUFF   FAIR      43  43 100 SW3       30.09S                  
WEST PLAINS    CLEAR     42  36  79 W5        30.09F                  
                                       
$$